Time,TemperatureF,DewpointF,PressureIn,WindDirection,WindDirectionDegrees,WindSpeedMPH,WindSpeedGustMPH,Humidity,HourlyPrecipIn,Conditions,Clouds,dailyrainin,SoftwareType,DateUTC
2013-07-23 00:01:00,76.7,72.2,29.20,WSW,239,5.8,5.8,86,0.01,RA,,0.00,WeatherDisplay:10.37,2013-07-23 04:01:00,
2013-07-23 00:06:00,76.7,72.2,29.20,WSW,251,5.8,5.8,86,0.00,RA,,0.00,WeatherDisplay:10.37,2013-07-23 04:06:00,
2013-07-23 00:11:00,76.7,72.2,29.20,SW,234,2.3,0.0,86,0.00,CLR,,0.00,WeatherDisplay:10.37,2013-07-23 04:11:00,
2013-07-23 00:16:00,76.7,72.2,29.20,SW,222,0.0,0.0,86,0.00,CLR,,0.00,WeatherDisplay:10.37,2013-07-23 04:16:00,
2013-07-23 00:21:00,76.7,72.2,29.20,SSW,209,3.5,3.5,86,0.00,CLR,,0.00,WeatherDisplay:10.37,2013-07-23 04:21:00,
2013-07-23 00:26:00,76.5,72.0,29.20,SW,222,5.8,5.8,86,0.00,CLR,,0.00,WeatherDisplay:10.37,2013-07-23 04:26:00,
2013-07-23 00:31:00,76.5,72.0,29.20,SW,233,2.3,0.0,86,0.00,CLR,,0.00,WeatherDisplay:10.37,2013-07-23 04:31:00,
2013-07-23 00:36:00,76.5,71.7,29.20,WSW,254,6.9,6.9,85,0.00,CLR,,0.00,WeatherDisplay:10.37,2013-07-23 04:36:00,
2013-07-23 00:41:00,76.5,72.0,29.20,West,263,5.8,5.8,86,0.00,CLR,,0.00,WeatherDisplay:10.37,2013-07-23 04:41:00,
2013-07-23 00:46:00,76.5,72.0,29.20,SW,234,5.0,5.0,86,0.00,CLR,,0.00,WeatherDisplay:10.37,2013-07-23 04:46:00,
2013-07-23 00:51:00,76.5,72.0,29.20,WSW,243,6.9,6.9,86,0.00,CLR,,0.00,WeatherDisplay:10.37,2013-07-23 04:51:00,
2013-07-23 00:56:00,76.3,71.8,29.20,WSW,248,6.9,6.9,86,0.00,CLR,,0.00,WeatherDisplay:10.37,2013-07-23 04:56:00,
2013-07-23 01:01:00,76.5,72.0,29.20,WSW,254,8.1,8.1,86,0.00,CLR,,0.00,WeatherDisplay:10.37,2013-07-23 05:01:00,
2013-07-23 01:06:00,76.3,71.8,29.19,WSW,257,5.8,5.8,86,0.00,CLR,,0.00,WeatherDisplay:10.37,2013-07-23 05:06:00,
2013-07-23 01:11:00,76.5,72.0,29.19,SSW,205,3.5,3.5,86,0.00,CLR,,0.00,WeatherDisplay:10.37,2013-07-23 05:11:00,
2013-07-23 01:16:00,76.3,71.8,29.19,WSW,250,3.5,3.5,86,0.00,CLR,,0.00,WeatherDisplay:10.37,2013-07-23 05:16:00,
2013-07-23 01:21:00,76.3,71.8,29.19,WSW,250,8.1,8.1,86,0.00,CLR,,0.00,WeatherDisplay:10.37,2013-07-23 05:21:00,
2013-07-23 01:26:00,76.3,71.5,29.19,SW,236,6.9,6.9,85,0.00,CLR,,0.00,WeatherDisplay:10.37,2013-07-23 05:26:00,
2013-07-23 01:31:00,76.3,71.5,29.19,WSW,239,4.6,4.6,85,0.00,CLR,,0.00,WeatherDisplay:10.37,2013-07-23 05:31:00,
2013-07-23 01:36:00,76.3,71.5,29.18,SW,236,0.0,0.6,85,0.00,CLR,,0.00,WeatherDisplay:10.37,2013-07-23 05:36:00,
2013-07-23 01:41:00,76.3,71.5,29.18,SSW,205,5.8,5.8,85,0.00,CLR,,0.00,WeatherDisplay:10.37,2013-07-23 05:41:00,
2013-07-23 01:46:00,76.3,71.5,29.18,WSW,237,6.9,0.0,85,0.00,CLR,,0.00,WeatherDisplay:10.37,2013-07-23 05:46:00,
2013-07-23 01:51:00,76.3,71.5,29.18,SW,233,2.3,0.0,85,0.00,CLR,,0.00,WeatherDisplay:10.37,2013-07-23 05:51:00,
2013-07-23 01:56:00,76.3,71.5,29.18,WSW,250,5.8,5.8,85,0.00,CLR,,0.00,WeatherDisplay:10.37,2013-07-23 05:56:00,
2013-07-23 02:01:00,76.3,71.5,29.18,SSW,206,4.6,4.6,85,0.00,CLR,,0.00,WeatherDisplay:10.37,2013-07-23 06:01:00,
2013-07-23 02:06:00,76.3,71.5,29.17,West,270,6.0,6.0,85,0.00,CLR,,0.00,WeatherDisplay:10.37,2013-07-23 06:06:00,
2013-07-23 02:11:00,76.1,71.3,29.17,WSW,248,4.6,4.6,85,0.00,CLR,,0.00,WeatherDisplay:10.37,2013-07-23 06:11:00,
2013-07-23 02:16:00,76.1,71.3,29.17,WSW,240,0.0,0.0,85,0.00,CLR,,0.00,WeatherDisplay:10.37,2013-07-23 06:16:00,
2013-07-23 02:21:00,76.1,71.3,29.17,WSW,246,5.8,5.8,85,0.00,CLR,,0.00,WeatherDisplay:10.37,2013-07-23 06:21:00,
2013-07-23 02:26:00,76.0,71.2,29.17,SW,233,6.9,6.9,85,0.00,CLR,,0.00,WeatherDisplay:10.37,2013-07-23 06:26:00,
2013-07-23 02:31:00,76.0,71.2,29.17,WSW,254,3.5,3.5,85,0.00,CLR,,0.00,WeatherDisplay:10.37,2013-07-23 06:31:00,
2013-07-23 02:36:00,76.0,71.5,29.17,South,174,4.6,4.6,86,0.00,CLR,,0.00,WeatherDisplay:10.37,2013-07-23 06:36:00,
2013-07-23 02:41:00,75.8,71.3,29.17,SSW,208,3.5,3.5,86,0.00,CLR,,0.00,WeatherDisplay:10.37,2013-07-23 06:41:00,
2013-07-23 02:46:00,75.8,71.3,29.17,WSW,244,3.5,3.5,86,0.00,CLR,,0.00,WeatherDisplay:10.37,2013-07-23 06:46:00,
2013-07-23 02:51:00,75.6,71.1,29.16,SW,229,6.0,6.0,86,0.00,CLR,,0.00,WeatherDisplay:10.37,2013-07-23 06:51:00,
2013-07-23 02:56:00,75.6,71.1,29.16,SW,234,4.6,0.0,86,0.00,CLR,,0.00,WeatherDisplay:10.37,2013-07-23 06:56:00,
2013-07-23 03:01:00,75.6,71.1,29.16,SW,219,0.0,0.0,86,0.00,CLR,,0.00,WeatherDisplay:10.37,2013-07-23 07:01:00,
2013-07-23 03:06:00,75.4,70.9,29.15,SSE,168,0.0,0.0,86,0.00,CLR,,0.00,WeatherDisplay:10.37,2013-07-23 07:06:00,
2013-07-23 03:11:00,75.4,70.9,29.15,SSE,165,0.0,0.0,86,0.00,CLR,,0.00,WeatherDisplay:10.37,2013-07-23 07:11:00,
2013-07-23 03:16:00,75.3,71.2,29.15,South,171,0.0,0.0,87,0.00,CLR,,0.00,WeatherDisplay:10.37,2013-07-23 07:16:00,
2013-07-23 03:21:00,75.1,71.3,29.14,SW,229,0.0,0.0,88,0.00,CLR,,0.00,WeatherDisplay:10.37,2013-07-23 07:21:00,
2013-07-23 03:26:00,74.9,71.1,29.14,SW,233,0.0,0.0,88,0.00,CLR,,0.00,WeatherDisplay:10.37,2013-07-23 07:26:00,
2013-07-23 03:31:00,74.9,71.1,29.14,SW,236,1.1,0.0,88,0.00,CLR,,0.00,WeatherDisplay:10.37,2013-07-23 07:31:00,
2013-07-23 03:37:00,74.9,71.4,29.14,SSW,208,0.0,0.0,89,0.00,CLR,,0.00,WeatherDisplay:10.37,2013-07-23 07:37:00,
2013-07-23 03:42:00,74.7,71.2,29.14,WSW,243,3.0,3.0,89,0.00,CLR,,0.00,WeatherDisplay:10.37,2013-07-23 07:42:00,
2013-07-23 03:47:00,74.6,71.1,29.14,SW,233,0.0,0.0,89,0.00,CLR,,0.00,WeatherDisplay:10.37,2013-07-23 07:47:00,
2013-07-23 03:52:00,74.6,71.1,29.14,SW,232,4.6,4.6,89,0.00,CLR,,0.00,WeatherDisplay:10.37,2013-07-23 07:52:00,
2013-07-23 03:57:00,74.7,71.2,29.14,SW,226,4.6,4.6,89,0.00,CLR,,0.00,WeatherDisplay:10.37,2013-07-23 07:57:00,
2013-07-23 04:02:00,74.6,71.1,29.14,SW,227,5.8,5.8,89,0.00,CLR,,0.00,WeatherDisplay:10.37,2013-07-23 08:02:00,
2013-07-23 04:07:00,74.6,71.1,29.13,WSW,247,3.5,3.5,89,0.00,CLR,,0.00,WeatherDisplay:10.37,2013-07-23 08:07:00,
2013-07-23 04:12:00,74.6,71.1,29.13,WSW,244,0.0,0.7,89,0.00,CLR,,0.00,WeatherDisplay:10.37,2013-07-23 08:12:00,
2013-07-23 04:17:00,74.6,71.1,29.13,WSW,240,2.3,2.3,89,0.00,CLR,,0.00,WeatherDisplay:10.37,2013-07-23 08:17:00,
2013-07-23 04:22:00,74.6,71.5,29.13,SW,226,0.0,0.1,90,0.00,CLR,,0.00,WeatherDisplay:10.37,2013-07-23 08:22:00,
2013-07-23 04:27:00,74.6,71.5,29.13,SW,229,5.8,5.8,90,0.00,CLR,,0.00,WeatherDisplay:10.37,2013-07-23 08:27:00,
2013-07-23 04:32:00,74.6,71.1,29.13,WSW,250,9.2,9.2,89,0.00,CLR,,0.00,WeatherDisplay:10.37,2013-07-23 08:32:00,
2013-07-23 04:37:00,74.6,71.1,29.14,WSW,250,5.8,5.8,89,0.00,CLR,,0.00,WeatherDisplay:10.37,2013-07-23 08:37:00,
2013-07-23 04:42:00,74.6,71.1,29.14,SW,217,1.1,0.0,89,0.00,CLR,,0.00,WeatherDisplay:10.37,2013-07-23 08:42:00,
2013-07-23 04:47:00,74.6,71.1,29.14,WSW,246,4.6,4.6,89,0.00,CLR,,0.00,WeatherDisplay:10.37,2013-07-23 08:47:00,
2013-07-23 04:52:00,74.7,71.2,29.14,SW,230,3.5,3.5,89,0.00,CLR,,0.00,WeatherDisplay:10.37,2013-07-23 08:52:00,
2013-07-23 04:57:00,74.7,71.2,29.14,WSW,257,4.6,0.0,89,0.00,CLR,,0.00,WeatherDisplay:10.37,2013-07-23 08:57:00,
2013-07-23 05:02:00,74.6,71.1,29.14,SW,220,6.0,6.0,89,0.00,CLR,,0.00,WeatherDisplay:10.37,2013-07-23 09:02:00,
2013-07-23 05:07:00,74.7,71.2,29.15,SW,226,4.6,4.6,89,0.00,CLR,,0.00,WeatherDisplay:10.37,2013-07-23 09:07:00,
2013-07-23 05:12:00,74.7,71.2,29.15,WSW,244,4.6,4.6,89,0.00,CLR,,0.00,WeatherDisplay:10.37,2013-07-23 09:12:00,
2013-07-23 05:17:00,74.9,71.4,29.15,WSW,237,11.5,11.5,89,0.00,CLR,,0.00,WeatherDisplay:10.37,2013-07-23 09:17:00,
2013-07-23 05:22:00,74.9,71.4,29.15,SW,227,5.8,5.8,89,0.00,CLR,,0.00,WeatherDisplay:10.37,2013-07-23 09:22:00,
2013-07-23 05:27:00,74.9,71.4,29.15,WSW,247,2.0,4.6,89,0.00,CLR,,0.00,WeatherDisplay:10.37,2013-07-23 09:27:00,
2013-07-23 05:32:00,74.9,71.4,29.15,SW,223,8.1,8.1,89,0.00,CLR,,0.00,WeatherDisplay:10.37,2013-07-23 09:32:00,
2013-07-23 05:37:00,74.7,71.2,29.15,SW,236,5.8,5.8,89,0.00,CLR,,0.00,WeatherDisplay:10.37,2013-07-23 09:37:00,
2013-07-23 05:42:00,74.7,71.6,29.15,SW,220,6.0,6.0,90,0.00,CLR,,0.00,WeatherDisplay:10.37,2013-07-23 09:42:00,
2013-07-23 05:47:00,74.6,71.5,29.15,WSW,243,3.5,3.5,90,0.00,CLR,,0.00,WeatherDisplay:10.37,2013-07-23 09:47:00,
2013-07-23 05:52:00,74.6,71.5,29.15,WSW,241,5.8,5.8,90,0.00,CLR,,0.00,WeatherDisplay:10.37,2013-07-23 09:52:00,
2013-07-23 05:57:00,74.4,71.6,29.15,WSW,250,9.2,9.2,91,0.00,CLR,,0.00,WeatherDisplay:10.37,2013-07-23 09:57:00,
2013-07-23 06:02:00,74.4,71.6,29.15,WSW,256,5.8,0.0,91,0.00,CLR,,0.00,WeatherDisplay:10.37,2013-07-23 10:02:00,
2013-07-23 06:07:00,74.2,71.4,29.15,West,260,8.1,8.1,91,0.00,CLR,,0.00,WeatherDisplay:10.37,2013-07-23 10:07:00,
2013-07-23 06:12:00,74.2,71.4,29.15,SW,223,0.0,0.0,91,0.00,CLR,,0.00,WeatherDisplay:10.37,2013-07-23 10:12:00,
2013-07-23 06:17:00,74.2,71.4,29.15,West,272,4.6,4.6,91,0.00,CLR,,0.00,WeatherDisplay:10.37,2013-07-23 10:17:00,
2013-07-23 06:22:00,74.0,71.5,29.15,WSW,237,10.4,10.4,92,0.00,CLR,,0.00,WeatherDisplay:10.37,2013-07-23 10:22:00,
2013-07-23 06:27:00,74.0,71.5,29.15,West,267,8.1,8.1,92,0.00,CLR,,0.00,WeatherDisplay:10.37,2013-07-23 10:27:00,
2013-07-23 06:32:00,74.0,71.5,29.15,WSW,239,6.9,6.9,92,0.00,CLR,,0.00,WeatherDisplay:10.37,2013-07-23 10:32:00,
2013-07-23 06:37:00,74.0,71.5,29.16,WSW,253,10.4,10.4,92,0.00,CLR,,0.00,WeatherDisplay:10.37,2013-07-23 10:37:00,
2013-07-23 06:42:00,74.0,71.5,29.16,WSW,243,4.6,4.6,92,0.00,CLR,,0.00,WeatherDisplay:10.37,2013-07-23 10:42:00,
2013-07-23 06:47:00,74.0,71.5,29.16,West,268,11.5,11.5,92,0.00,CLR,,0.00,WeatherDisplay:10.37,2013-07-23 10:47:00,
2013-07-23 06:52:00,74.0,71.5,29.16,WSW,243,5.8,5.8,92,0.00,CLR,,0.00,WeatherDisplay:10.37,2013-07-23 10:52:00,
2013-07-23 06:57:00,74.2,71.4,29.16,SW,234,6.0,6.0,91,0.00,CLR,,0.00,WeatherDisplay:10.37,2013-07-23 10:57:00,
2013-07-23 07:02:00,74.2,71.4,29.16,WSW,253,3.5,3.5,91,0.00,CLR,,0.00,WeatherDisplay:10.37,2013-07-23 11:02:00,
2013-07-23 07:07:00,74.4,71.6,29.16,SW,226,4.6,4.6,91,0.00,CLR,,0.00,WeatherDisplay:10.37,2013-07-23 11:07:00,
2013-07-23 07:12:00,74.6,71.5,29.16,SW,217,8.1,8.1,90,0.00,CLR,,0.00,WeatherDisplay:10.37,2013-07-23 11:12:00,
2013-07-23 07:17:00,74.6,71.5,29.16,SW,236,6.9,6.9,90,0.00,CLR,,0.00,WeatherDisplay:10.37,2013-07-23 11:17:00,
2013-07-23 07:22:00,74.6,71.5,29.17,SW,227,4.6,4.6,90,0.00,CLR,,0.00,WeatherDisplay:10.37,2013-07-23 11:22:00,
2013-07-23 07:27:00,74.7,71.2,29.17,SSW,209,6.9,6.9,89,0.00,CLR,,0.00,WeatherDisplay:10.37,2013-07-23 11:27:00,
2013-07-23 07:32:00,74.7,71.2,29.17,SW,222,5.8,5.8,89,0.00,CLR,,0.00,WeatherDisplay:10.37,2013-07-23 11:32:00,
2013-07-23 07:37:00,74.9,71.4,29.17,SSW,205,3.5,3.5,89,0.00,CLR,,0.00,WeatherDisplay:10.37,2013-07-23 11:37:00,
2013-07-23 07:42:00,74.9,71.4,29.17,NW,305,8.1,8.1,89,0.00,CLR,,0.00,WeatherDisplay:10.37,2013-07-23 11:42:00,
2013-07-23 07:47:00,74.9,71.4,29.17,West,263,10.4,10.4,89,0.00,CLR,,0.00,WeatherDisplay:10.37,2013-07-23 11:47:00,
2013-07-23 07:52:00,74.9,71.4,29.17,West,277,0.0,0.0,89,0.00,CLR,,0.00,WeatherDisplay:10.37,2013-07-23 11:52:00,
2013-07-23 07:57:00,75.1,71.3,29.17,WSW,256,6.9,6.9,88,0.00,CLR,,0.00,WeatherDisplay:10.37,2013-07-23 11:57:00,
2013-07-23 08:02:00,75.3,71.5,29.17,West,270,5.8,5.8,88,0.00,CLR,,0.00,WeatherDisplay:10.37,2013-07-23 12:02:00,
2013-07-23 08:07:00,75.3,71.5,29.17,WSW,246,6.9,6.9,88,0.00,CLR,,0.00,WeatherDisplay:10.37,2013-07-23 12:07:00,
2013-07-23 08:12:00,75.3,71.5,29.17,WSW,256,6.0,6.0,88,0.00,CLR,,0.00,WeatherDisplay:10.37,2013-07-23 12:12:00,
2013-07-23 08:17:00,75.3,71.5,29.17,SW,227,8.1,8.1,88,0.00,CLR,,0.00,WeatherDisplay:10.37,2013-07-23 12:17:00,
2013-07-23 08:22:00,75.3,71.5,29.17,SW,227,8.1,8.1,88,0.00,CLR,,0.00,WeatherDisplay:10.37,2013-07-23 12:22:00,
2013-07-23 08:27:00,75.1,71.3,29.17,WSW,241,11.5,11.5,88,0.00,CLR,,0.00,WeatherDisplay:10.37,2013-07-23 12:27:00,
2013-07-23 08:32:00,75.1,71.6,29.17,SW,233,6.9,6.9,89,0.00,CLR,,0.00,WeatherDisplay:10.37,2013-07-23 12:32:00,
2013-07-23 08:37:00,75.4,71.6,29.17,SSW,210,6.0,6.0,88,0.00,CLR,,0.00,WeatherDisplay:10.37,2013-07-23 12:37:00,
2013-07-23 08:42:00,75.6,71.1,29.17,WNW,282,8.1,8.1,86,0.00,CLR,,0.00,WeatherDisplay:10.37,2013-07-23 12:42:00,
2013-07-23 08:47:00,76.0,71.2,29.17,WSW,240,6.9,6.9,85,0.00,CLR,,0.00,WeatherDisplay:10.37,2013-07-23 12:47:00,
2013-07-23 08:52:00,76.3,70.8,29.17,WSW,240,8.1,8.1,83,0.00,CLR,,0.00,WeatherDisplay:10.37,2013-07-23 12:52:00,
2013-07-23 08:57:00,76.8,71.2,29.17,SW,230,11.5,11.5,83,0.00,CLR,,0.00,WeatherDisplay:10.37,2013-07-23 12:57:00,
2013-07-23 09:02:00,77.4,71.1,29.17,West,261,5.8,5.8,81,0.00,CLR,,0.00,WeatherDisplay:10.37,2013-07-23 13:02:00,
2013-07-23 09:07:00,77.7,71.0,29.17,WSW,250,8.1,8.1,80,0.00,CLR,,0.00,WeatherDisplay:10.37,2013-07-23 13:07:00,
2013-07-23 09:12:00,77.7,71.0,29.17,West,267,11.0,11.0,80,0.00,CLR,,0.00,WeatherDisplay:10.37,2013-07-23 13:12:00,
2013-07-23 09:17:00,77.7,71.0,29.17,SW,224,11.5,11.5,80,0.00,CLR,,0.00,WeatherDisplay:10.37,2013-07-23 13:17:00,
2013-07-23 09:22:00,77.9,70.9,29.17,SW,233,5.8,5.8,79,0.00,CLR,,0.00,WeatherDisplay:10.37,2013-07-23 13:22:00,
2013-07-23 09:27:00,78.3,71.2,29.17,NW,312,8.1,8.1,79,0.00,CLR,,0.00,WeatherDisplay:10.37,2013-07-23 13:27:00,
2013-07-23 09:32:00,78.6,71.5,29.17,SW,222,8.1,8.1,79,0.00,CLR,,0.00,WeatherDisplay:10.37,2013-07-23 13:32:00,
2013-07-23 09:37:00,78.6,70.4,29.16,WSW,246,8.1,8.1,76,0.00,CLR,,0.00,WeatherDisplay:10.37,2013-07-23 13:37:00,
2013-07-23 09:42:00,78.6,70.4,29.16,WSW,258,8.1,8.1,76,0.00,CLR,,0.00,WeatherDisplay:10.37,2013-07-23 13:42:00,
2013-07-23 09:47:00,78.6,70.8,29.16,NW,309,5.8,5.8,77,0.00,CLR,,0.00,WeatherDisplay:10.37,2013-07-23 13:47:00,
2013-07-23 09:52:00,78.8,70.6,29.16,West,275,3.5,3.5,76,0.00,CLR,,0.00,WeatherDisplay:10.37,2013-07-23 13:52:00,
2013-07-23 09:57:00,79.2,70.6,29.16,WSW,246,6.9,6.9,75,0.00,CLR,,0.00,WeatherDisplay:10.37,2013-07-23 13:57:00,
2013-07-23 10:02:00,79.6,71.4,29.16,West,261,5.8,0.0,76,0.00,CLR,,0.00,WeatherDisplay:10.37,2013-07-23 14:02:00,
2013-07-23 10:07:00,79.9,70.5,29.16,WNW,289,6.9,6.9,73,0.00,CLR,,0.00,WeatherDisplay:10.37,2013-07-23 14:07:00,
2013-07-23 10:12:00,80.1,71.1,29.16,NNW,335,6.9,6.9,74,0.00,CLR,,0.00,WeatherDisplay:10.37,2013-07-23 14:12:00,
2013-07-23 10:17:00,80.1,70.7,29.16,WSW,254,9.2,9.2,73,0.00,CLR,,0.00,WeatherDisplay:10.37,2013-07-23 14:17:00,
2013-07-23 10:22:00,80.5,71.0,29.15,NW,306,5.8,5.8,73,0.00,CLR,,0.00,WeatherDisplay:10.37,2013-07-23 14:22:00,
2013-07-23 10:27:00,80.9,71.4,29.15,WSW,253,8.1,8.1,73,0.00,CLR,,0.00,WeatherDisplay:10.37,2013-07-23 14:27:00,
2013-07-23 10:32:00,81.2,70.9,29.15,West,267,6.9,6.9,71,0.00,CLR,,0.00,WeatherDisplay:10.37,2013-07-23 14:32:00,
2013-07-23 10:37:00,81.4,70.7,29.16,West,264,8.1,8.1,70,0.00,CLR,,0.00,WeatherDisplay:10.37,2013-07-23 14:37:00,
2013-07-23 10:42:00,81.4,71.1,29.16,WSW,243,3.5,3.5,71,0.00,CLR,,0.00,WeatherDisplay:10.37,2013-07-23 14:42:00,
2013-07-23 10:47:00,81.1,70.4,29.16,WSW,237,8.1,8.1,70,0.00,CLR,,0.00,WeatherDisplay:10.37,2013-07-23 14:47:00,
2013-07-23 10:52:00,81.2,70.5,29.16,WSW,239,0.0,0.0,70,0.00,CLR,,0.00,WeatherDisplay:10.37,2013-07-23 14:52:00,
2013-07-23 10:57:00,81.6,70.4,29.16,WSW,244,8.1,8.1,69,0.00,CLR,,0.00,WeatherDisplay:10.37,2013-07-23 14:57:00,
2013-07-23 11:02:00,81.8,70.6,29.16,SW,226,5.8,5.8,69,0.00,CLR,,0.00,WeatherDisplay:10.37,2013-07-23 15:02:00,
2013-07-23 11:07:00,81.8,69.3,29.15,SW,227,8.1,8.1,66,0.00,CLR,,0.00,WeatherDisplay:10.37,2013-07-23 15:07:00,
2013-07-23 11:12:00,82.2,69.3,29.15,SW,224,4.6,5.3,65,0.00,CLR,,0.00,WeatherDisplay:10.37,2013-07-23 15:12:00,
2013-07-23 11:17:00,82.6,70.5,29.15,West,260,2.3,2.3,67,0.00,CLR,,0.00,WeatherDisplay:10.37,2013-07-23 15:17:00,
2013-07-23 11:22:00,83.0,70.5,29.15,WSW,244,6.9,6.9,66,0.00,CLR,,0.00,WeatherDisplay:10.37,2013-07-23 15:22:00,
2013-07-23 11:27:00,83.0,70.0,29.15,WSW,248,8.1,8.1,65,0.00,CLR,,0.00,WeatherDisplay:10.37,2013-07-23 15:27:00,
2013-07-23 11:32:00,83.0,70.0,29.15,WSW,254,6.9,6.9,65,0.00,CLR,,0.00,WeatherDisplay:10.37,2013-07-23 15:32:00,
2013-07-23 11:37:00,83.2,70.7,29.15,WSW,241,9.2,9.2,66,0.00,CLR,,0.00,WeatherDisplay:10.37,2013-07-23 15:37:00,
2013-07-23 11:42:00,83.2,70.2,29.15,West,268,5.8,5.8,65,0.00,CLR,,0.00,WeatherDisplay:10.37,2013-07-23 15:42:00,
2013-07-23 11:47:00,83.0,70.5,29.15,NW,312,3.5,3.5,66,0.00,CLR,,0.00,WeatherDisplay:10.37,2013-07-23 15:47:00,
2013-07-23 11:52:00,82.6,69.6,29.15,WSW,244,10.4,10.4,65,0.00,CLR,,0.00,WeatherDisplay:10.37,2013-07-23 15:52:00,
2013-07-23 11:57:00,82.6,70.1,29.15,NNE,27,5.8,5.8,66,0.00,CLR,,0.00,WeatherDisplay:10.37,2013-07-23 15:57:00,
2013-07-23 12:02:00,83.2,70.7,29.15,West,277,2.3,0.0,66,0.00,CLR,,0.00,WeatherDisplay:10.37,2013-07-23 16:02:00,
2013-07-23 12:07:00,83.8,68.4,29.15,West,274,2.0,2.3,60,0.00,CLR,,0.00,WeatherDisplay:10.37,2013-07-23 16:07:00,
2013-07-23 12:12:00,84.0,68.6,29.15,WSW,239,3.0,3.0,60,0.00,CLR,,0.00,WeatherDisplay:10.37,2013-07-23 16:12:00,
2013-07-23 12:17:00,84.0,68.6,29.15,NW,312,2.3,0.0,60,0.00,CLR,,0.00,WeatherDisplay:10.37,2013-07-23 16:17:00,
2013-07-23 12:22:00,84.0,70.5,29.16,West,268,6.9,6.9,64,0.00,CLR,,0.00,WeatherDisplay:10.37,2013-07-23 16:22:00,
2013-07-23 12:27:00,83.8,70.8,29.16,WNW,288,6.0,6.0,65,0.00,CLR,,0.00,WeatherDisplay:10.37,2013-07-23 16:27:00,
2013-07-23 12:32:00,84.1,70.6,29.16,WSW,243,5.8,5.8,64,0.00,CLR,,0.00,WeatherDisplay:10.37,2013-07-23 16:32:00,
2013-07-23 12:37:00,84.5,70.5,29.15,SW,224,3.5,3.5,63,0.00,CLR,,0.00,WeatherDisplay:10.37,2013-07-23 16:37:00,
2013-07-23 12:42:00,83.8,69.9,29.15,WSW,243,3.5,0.0,63,0.00,CLR,,0.00,WeatherDisplay:10.37,2013-07-23 16:42:00,
2013-07-23 12:47:00,83.2,70.7,29.15,SW,227,3.5,3.5,66,0.00,CLR,,0.00,WeatherDisplay:10.37,2013-07-23 16:47:00,
2013-07-23 12:52:00,83.2,69.8,29.15,WSW,257,5.8,5.8,64,0.00,CLR,,0.00,WeatherDisplay:10.37,2013-07-23 16:52:00,
2013-07-23 12:57:00,83.8,71.2,29.15,WNW,282,4.6,4.6,66,0.00,CLR,,0.00,WeatherDisplay:10.37,2013-07-23 16:57:00,
2013-07-23 13:02:00,84.1,71.5,29.15,WNW,299,0.0,0.6,66,0.00,CLR,,0.00,WeatherDisplay:10.37,2013-07-23 17:02:00,
2013-07-23 13:07:00,84.9,71.8,29.15,West,260,4.6,0.0,65,0.00,CLR,,0.00,WeatherDisplay:10.37,2013-07-23 17:07:00,
2013-07-23 13:12:00,84.9,70.4,29.15,SW,236,10.4,10.4,62,0.00,CLR,,0.00,WeatherDisplay:10.37,2013-07-23 17:12:00,
2013-07-23 13:17:00,84.9,72.7,29.15,SW,232,6.9,6.9,67,0.00,CLR,,0.00,WeatherDisplay:10.37,2013-07-23 17:17:00,
2013-07-23 13:22:00,85.3,71.3,29.14,WSW,253,2.3,2.3,63,0.00,CLR,,0.00,WeatherDisplay:10.37,2013-07-23 17:22:00,
2013-07-23 13:27:00,85.5,70.5,29.14,SSW,206,3.5,3.5,61,0.00,CLR,,0.00,WeatherDisplay:10.37,2013-07-23 17:27:00,
2013-07-23 13:32:00,85.3,71.3,29.14,North,352,3.5,3.5,63,0.00,CLR,,0.00,WeatherDisplay:10.37,2013-07-23 17:32:00,
2013-07-23 13:37:00,85.5,71.0,29.14,WSW,253,3.5,3.5,62,0.00,CLR,,0.00,WeatherDisplay:10.37,2013-07-23 17:37:00,
2013-07-23 13:42:00,85.3,71.3,29.14,West,263,3.5,3.5,63,0.00,CLR,,0.00,WeatherDisplay:10.37,2013-07-23 17:42:00,
2013-07-23 13:47:00,85.3,70.8,29.14,West,268,8.1,8.1,62,0.00,CLR,,0.00,WeatherDisplay:10.37,2013-07-23 17:47:00,
2013-07-23 13:53:00,85.7,71.7,29.14,WNW,302,10.4,10.4,63,0.00,CLR,,0.00,WeatherDisplay:10.37,2013-07-23 17:53:00,
2013-07-23 13:58:00,85.5,71.0,29.14,NW,318,5.8,5.8,62,0.00,CLR,,0.00,WeatherDisplay:10.37,2013-07-23 17:58:00,
2013-07-23 14:03:00,85.3,70.8,29.14,SW,219,11.5,11.5,62,0.00,CLR,,0.00,WeatherDisplay:10.37,2013-07-23 18:03:00,
2013-07-23 14:08:00,85.3,70.8,29.14,SW,223,4.6,4.7,62,0.00,CLR,,0.00,WeatherDisplay:10.37,2013-07-23 18:08:00,
2013-07-23 14:13:00,85.3,69.8,29.14,West,280,6.9,6.9,60,0.00,CLR,,0.00,WeatherDisplay:10.37,2013-07-23 18:13:00,
2013-07-23 14:19:00,85.9,70.4,29.14,WSW,243,6.9,6.9,60,0.00,CLR,,0.00,WeatherDisplay:10.37,2013-07-23 18:19:00,
2013-07-23 14:24:00,86.1,71.6,29.13,West,271,4.0,4.0,62,0.00,CLR,,0.00,WeatherDisplay:10.37,2013-07-23 18:24:00,
2013-07-23 14:29:00,85.7,70.2,29.13,West,260,6.9,6.9,60,0.00,CLR,,0.00,WeatherDisplay:10.37,2013-07-23 18:29:00,
2013-07-23 14:34:00,85.9,71.4,29.13,WSW,240,5.8,5.8,62,0.00,CLR,,0.00,WeatherDisplay:10.37,2013-07-23 18:34:00,
2013-07-23 14:40:00,85.5,71.5,29.13,West,263,3.5,3.5,63,0.00,CLR,,0.00,WeatherDisplay:10.37,2013-07-23 18:40:00,
2013-07-23 14:45:00,85.1,71.5,29.13,NW,311,1.1,1.1,64,0.00,CLR,,0.00,WeatherDisplay:10.37,2013-07-23 18:45:00,
2013-07-23 14:50:00,84.5,71.9,29.13,NW,325,3.5,3.5,66,0.00,CLR,,0.00,WeatherDisplay:10.37,2013-07-23 18:50:00,
2013-07-23 14:55:00,84.3,72.1,29.13,NNW,336,1.1,1.2,67,0.00,CLR,,0.00,WeatherDisplay:10.37,2013-07-23 18:55:00,
2013-07-23 15:00:00,84.5,72.3,29.13,WNW,289,4.6,4.6,67,0.00,CLR,,0.00,WeatherDisplay:10.37,2013-07-23 19:00:00,
2013-07-23 15:06:00,85.3,72.2,29.12,SW,234,4.6,4.6,65,0.00,CLR,,0.00,WeatherDisplay:10.37,2013-07-23 19:06:00,
2013-07-23 15:12:00,85.9,72.3,29.12,WNW,292,0.0,0.9,64,0.00,CLR,,0.00,WeatherDisplay:10.37,2013-07-23 19:12:00,
2013-07-23 15:17:00,86.5,71.5,29.12,WNW,282,2.3,2.3,61,0.00,CLR,,0.00,WeatherDisplay:10.37,2013-07-23 19:17:00,
2013-07-23 15:22:00,86.5,71.0,29.12,WSW,248,3.5,3.5,60,0.00,CLR,,0.00,WeatherDisplay:10.37,2013-07-23 19:22:00,
2013-07-23 15:28:00,86.1,71.6,29.12,WNW,294,0.0,0.0,62,0.00,CLR,,0.00,WeatherDisplay:10.37,2013-07-23 19:28:00,
2013-07-23 15:33:00,85.7,72.1,29.12,West,261,0.0,0.0,64,0.00,CLR,,0.00,WeatherDisplay:10.37,2013-07-23 19:33:00,
2013-07-23 15:38:00,85.7,73.0,29.11,North,356,1.0,0.0,66,0.00,CLR,,0.00,WeatherDisplay:10.37,2013-07-23 19:38:00,
2013-07-23 15:43:00,86.3,71.3,29.11,West,280,6.9,6.9,61,0.00,CLR,,0.00,WeatherDisplay:10.37,2013-07-23 19:43:00,
2013-07-23 15:49:00,86.5,70.5,29.11,WSW,257,5.8,5.8,59,0.00,CLR,,0.00,WeatherDisplay:10.37,2013-07-23 19:49:00,
2013-07-23 15:54:00,86.3,70.8,29.11,WSW,254,5.8,5.8,60,0.00,CLR,,0.00,WeatherDisplay:10.37,2013-07-23 19:54:00,
2013-07-23 16:01:00,86.5,70.0,29.11,SW,232,3.5,3.5,58,0.00,CLR,,0.00,WeatherDisplay:10.37,2013-07-23 20:01:00,
2013-07-23 16:06:00,87.0,70.4,29.10,WSW,244,1.1,1.1,58,0.00,CLR,,0.00,WeatherDisplay:10.37,2013-07-23 20:06:00,
2013-07-23 16:11:00,87.4,70.3,29.10,WNW,295,6.9,6.9,57,0.00,CLR,,0.00,WeatherDisplay:10.37,2013-07-23 20:11:00,
2013-07-23 16:17:00,87.6,71.0,29.10,West,271,1.1,0.0,58,0.00,CLR,,0.00,WeatherDisplay:10.37,2013-07-23 20:17:00,
2013-07-23 16:22:00,87.6,71.5,29.10,SSW,195,5.8,5.8,59,0.00,CLR,,0.00,WeatherDisplay:10.37,2013-07-23 20:22:00,
2013-07-23 16:27:00,87.8,70.1,29.10,WNW,296,10.4,10.4,56,0.00,CLR,,0.00,WeatherDisplay:10.37,2013-07-23 20:27:00,
2013-07-23 16:33:00,87.4,69.8,29.10,WSW,246,11.5,11.5,56,0.00,CLR,,0.00,WeatherDisplay:10.37,2013-07-23 20:33:00,
2013-07-23 16:38:00,87.2,70.1,29.09,WSW,239,4.6,4.6,57,0.00,CLR,,0.00,WeatherDisplay:10.37,2013-07-23 20:38:00,
2013-07-23 16:43:00,87.2,70.1,29.09,WNW,302,4.6,4.6,57,0.00,CLR,,0.00,WeatherDisplay:10.37,2013-07-23 20:43:00,
2013-07-23 16:48:00,87.2,69.6,29.09,North,350,6.9,6.9,56,0.00,CLR,,0.00,WeatherDisplay:10.37,2013-07-23 20:48:00,
2013-07-23 16:53:00,87.4,69.8,29.09,NW,313,5.8,5.8,56,0.00,CLR,,0.00,WeatherDisplay:10.37,2013-07-23 20:53:00,
2013-07-23 16:58:00,87.4,69.3,29.09,NE,37,6.9,6.9,55,0.00,CLR,,0.00,WeatherDisplay:10.37,2013-07-23 20:58:00,
2013-07-23 17:03:00,87.4,69.8,29.09,SW,229,3.5,3.5,56,0.00,CLR,,0.00,WeatherDisplay:10.37,2013-07-23 21:03:00,
2013-07-23 17:08:00,87.6,70.5,29.09,SW,234,2.3,0.0,57,0.00,CLR,,0.00,WeatherDisplay:10.37,2013-07-23 21:08:00,
2013-07-23 17:14:00,88.0,70.3,29.09,WNW,292,4.6,4.6,56,0.00,CLR,,0.00,WeatherDisplay:10.37,2013-07-23 21:14:00,
2013-07-23 17:19:00,87.6,70.5,29.09,WSW,254,4.6,4.6,57,0.00,CLR,,0.00,WeatherDisplay:10.37,2013-07-23 21:19:00,
2013-07-23 17:25:00,87.6,70.0,29.09,North,7,5.8,5.8,56,0.00,CLR,,0.00,WeatherDisplay:10.37,2013-07-23 21:25:00,
2013-07-23 17:30:00,87.4,69.8,29.09,West,275,3.5,3.5,56,0.00,CLR,,0.00,WeatherDisplay:10.37,2013-07-23 21:30:00,
2013-07-23 17:36:00,87.4,70.3,29.09,NW,311,1.1,1.1,57,0.00,CLR,,0.00,WeatherDisplay:10.37,2013-07-23 21:36:00,
2013-07-23 17:41:00,87.4,70.8,29.09,NW,305,0.0,0.2,58,0.00,CLR,,0.00,WeatherDisplay:10.37,2013-07-23 21:41:00,
2013-07-23 17:46:00,87.4,70.8,29.09,WSW,251,3.5,3.5,58,0.00,CLR,,0.00,WeatherDisplay:10.37,2013-07-23 21:46:00,
2013-07-23 17:51:00,87.6,72.0,29.09,WNW,301,0.0,0.0,60,0.00,CLR,,0.00,WeatherDisplay:10.37,2013-07-23 21:51:00,
2013-07-23 17:57:00,88.0,71.4,29.09,West,261,0.0,0.0,58,0.00,CLR,,0.00,WeatherDisplay:10.37,2013-07-23 21:57:00,
2013-07-23 18:03:00,88.0,71.4,29.09,WNW,298,3.5,3.5,58,0.00,CLR,,0.00,WeatherDisplay:10.37,2013-07-23 22:03:00,
2013-07-23 18:08:00,87.8,70.7,29.09,WNW,287,3.5,3.5,57,0.00,CLR,,0.00,WeatherDisplay:10.37,2013-07-23 22:08:00,
2013-07-23 18:13:00,87.8,70.7,29.09,NW,312,1.1,1.1,57,0.00,CLR,,0.00,WeatherDisplay:10.37,2013-07-23 22:13:00,
2013-07-23 18:20:00,87.4,70.8,29.09,WNW,292,0.0,0.0,58,0.00,CLR,,0.00,WeatherDisplay:10.37,2013-07-23 22:20:00,
2013-07-23 18:25:00,87.4,71.3,29.09,North,356,2.3,2.3,59,0.00,CLR,,0.00,WeatherDisplay:10.37,2013-07-23 22:25:00,
2013-07-23 18:30:00,87.6,72.0,29.09,North,356,0.0,0.0,60,0.00,CLR,,0.00,WeatherDisplay:10.37,2013-07-23 22:30:00,
2013-07-23 18:36:00,87.6,72.5,29.08,West,264,0.0,0.0,61,0.00,CLR,,0.00,WeatherDisplay:10.37,2013-07-23 22:36:00,
2013-07-23 18:42:00,87.6,72.0,29.08,West,274,0.0,0.0,60,0.00,CLR,,0.00,WeatherDisplay:10.37,2013-07-23 22:42:00,
2013-07-23 18:47:00,87.8,73.2,29.08,WSW,243,0.0,0.0,62,0.00,CLR,,0.00,WeatherDisplay:10.37,2013-07-23 22:47:00,
2013-07-23 18:52:00,87.8,72.7,29.09,WSW,253,2.3,2.3,61,0.00,CLR,,0.00,WeatherDisplay:10.37,2013-07-23 22:52:00,
2013-07-23 18:57:00,87.4,71.8,29.09,WNW,287,1.1,1.1,60,0.00,CLR,,0.00,WeatherDisplay:10.37,2013-07-23 22:57:00,
2013-07-23 19:02:00,87.0,72.4,29.09,WSW,243,0.0,0.0,62,0.00,CLR,,0.00,WeatherDisplay:10.37,2013-07-23 23:02:00,
2013-07-23 19:07:00,86.5,71.9,29.09,West,261,0.0,0.0,62,0.00,CLR,,0.00,WeatherDisplay:10.37,2013-07-23 23:07:00,
2013-07-23 19:12:00,86.1,72.5,29.09,North,356,0.0,0.0,64,0.00,CLR,,0.00,WeatherDisplay:10.37,2013-07-23 23:12:00,
2013-07-23 19:17:00,85.9,73.2,29.09,North,354,0.0,0.0,66,0.00,CLR,,0.00,WeatherDisplay:10.37,2013-07-23 23:17:00,
2013-07-23 19:22:00,85.9,72.3,29.09,East,79,0.0,0.0,64,0.00,CLR,,0.00,WeatherDisplay:10.37,2013-07-23 23:22:00,
2013-07-23 19:27:00,86.1,73.4,29.09,East,79,0.0,0.0,66,0.00,CLR,,0.00,WeatherDisplay:10.37,2013-07-23 23:27:00,
2013-07-23 19:33:00,85.9,73.2,29.09,SW,236,0.0,0.0,66,0.00,CLR,,0.00,WeatherDisplay:10.37,2013-07-23 23:33:00,
2013-07-23 19:38:00,85.5,73.7,29.09,SW,234,0.0,0.0,68,0.00,CLR,,0.00,WeatherDisplay:10.37,2013-07-23 23:38:00,
2013-07-23 19:43:00,85.1,73.3,29.09,North,353,0.0,0.0,68,0.00,CLR,,0.00,WeatherDisplay:10.37,2013-07-23 23:43:00,
2013-07-23 19:49:00,84.3,73.0,29.09,West,280,0.0,0.0,69,0.00,CLR,,0.00,WeatherDisplay:10.37,2013-07-23 23:49:00,
2013-07-23 19:54:00,84.0,73.2,29.09,West,277,0.0,0.0,70,0.00,CLR,,0.00,WeatherDisplay:10.37,2013-07-23 23:54:00,
2013-07-23 19:59:00,83.6,73.6,29.09,West,277,0.0,0.0,72,0.00,CLR,,0.00,WeatherDisplay:10.37,2013-07-23 23:59:00,
2013-07-23 20:04:00,83.2,73.2,29.09,West,277,0.0,0.0,72,0.00,CLR,,0.00,WeatherDisplay:10.37,2013-07-24 00:04:00,
2013-07-23 20:10:00,82.4,72.9,29.09,West,277,0.0,0.0,73,0.00,CLR,,0.00,WeatherDisplay:10.37,2013-07-24 00:10:00,
2013-07-23 20:15:00,81.8,72.7,29.09,West,277,0.0,0.0,74,0.00,CLR,,0.00,WeatherDisplay:10.37,2013-07-24 00:15:00,
2013-07-23 20:20:00,81.6,72.5,29.09,West,277,0.0,0.0,74,0.00,CLR,,0.00,WeatherDisplay:10.37,2013-07-24 00:20:00,
2013-07-23 20:25:00,81.1,72.0,29.09,West,274,0.0,0.0,74,0.00,CLR,,0.00,WeatherDisplay:10.37,2013-07-24 00:25:00,
2013-07-23 20:30:00,80.7,72.4,29.09,West,274,0.0,0.0,76,0.00,CLR,,0.00,WeatherDisplay:10.37,2013-07-24 00:30:00,
2013-07-23 20:35:00,80.1,71.8,29.09,West,274,0.0,0.0,76,0.00,CLR,,0.00,WeatherDisplay:10.37,2013-07-24 00:35:00,
2013-07-23 20:41:00,79.9,72.0,29.09,West,274,0.0,0.0,77,0.00,CLR,,0.00,WeatherDisplay:10.37,2013-07-24 00:41:00,
2013-07-23 20:46:00,79.6,72.1,29.09,West,274,0.0,0.0,78,0.00,CLR,,0.00,WeatherDisplay:10.37,2013-07-24 00:46:00,
2013-07-23 20:52:00,79.4,72.3,29.09,West,274,0.0,0.0,79,0.00,CLR,,0.00,WeatherDisplay:10.37,2013-07-24 00:52:00,
2013-07-23 20:57:00,79.2,72.1,29.09,West,264,0.0,0.0,79,0.00,CLR,,0.00,WeatherDisplay:10.37,2013-07-24 00:57:00,
2013-07-23 21:02:00,79.2,71.7,29.09,West,264,1.1,0.0,78,0.00,CLR,,0.00,WeatherDisplay:10.37,2013-07-24 01:02:00,
2013-07-23 21:08:00,79.2,71.4,29.11,West,264,0.0,0.0,77,0.00,CLR,,0.00,WeatherDisplay:10.37,2013-07-24 01:08:00,
2013-07-23 21:13:00,79.4,71.6,29.11,West,264,0.0,0.0,77,0.00,CLR,,0.00,WeatherDisplay:10.37,2013-07-24 01:13:00,
2013-07-23 21:19:00,79.4,71.6,29.11,West,264,0.0,0.0,77,0.00,CLR,,0.00,WeatherDisplay:10.37,2013-07-24 01:19:00,
2013-07-23 21:24:00,79.4,71.6,29.11,West,264,0.0,0.0,77,0.00,CLR,,0.00,WeatherDisplay:10.37,2013-07-24 01:24:00,
2013-07-23 21:29:00,79.4,71.6,29.11,West,264,1.1,1.1,77,0.00,CLR,,0.00,WeatherDisplay:10.37,2013-07-24 01:29:00,
2013-07-23 21:34:00,79.4,71.6,29.11,WSW,253,4.6,4.6,77,0.00,CLR,,0.00,WeatherDisplay:10.37,2013-07-24 01:34:00,
2013-07-23 21:39:00,79.2,71.4,29.11,SW,233,3.5,3.5,77,0.00,CLR,,0.00,WeatherDisplay:10.37,2013-07-24 01:39:00,
2013-07-23 21:45:00,78.8,71.4,29.11,SW,233,0.0,0.0,78,0.00,CLR,,0.00,WeatherDisplay:10.37,2013-07-24 01:45:00,
2013-07-23 21:50:00,78.8,71.4,29.11,SW,233,0.0,0.0,78,0.00,CLR,,0.00,WeatherDisplay:10.37,2013-07-24 01:50:00,
2013-07-23 21:55:00,78.6,71.2,29.12,SW,233,0.0,0.0,78,0.00,CLR,,0.00,WeatherDisplay:10.37,2013-07-24 01:55:00,
2013-07-23 22:01:00,78.5,71.4,29.12,SW,233,0.0,0.0,79,0.00,CLR,,0.00,WeatherDisplay:10.37,2013-07-24 02:01:00,
2013-07-23 22:06:00,78.5,71.1,29.12,SW,233,1.1,1.1,78,0.00,CLR,,0.00,WeatherDisplay:10.37,2013-07-24 02:06:00,
2013-07-23 22:11:00,78.5,71.4,29.13,SW,233,3.5,3.5,79,0.00,CLR,,0.00,WeatherDisplay:10.37,2013-07-24 02:11:00,
2013-07-23 22:16:00,78.5,71.4,29.13,SW,233,1.1,0.0,79,0.01,RA,,0.01,WeatherDisplay:10.37,2013-07-24 02:16:00,
2013-07-23 22:21:00,78.5,71.4,29.14,SW,233,3.5,3.5,79,0.01,RA,,0.01,WeatherDisplay:10.37,2013-07-24 02:21:00,
2013-07-23 22:27:00,78.5,71.1,29.14,SW,233,1.1,0.0,78,0.01,CLR,,0.01,WeatherDisplay:10.37,2013-07-24 02:27:00,
2013-07-23 22:32:00,78.3,71.2,29.14,SW,233,0.0,0.0,79,0.01,CLR,,0.01,WeatherDisplay:10.37,2013-07-24 02:32:00,
2013-07-23 22:38:00,78.3,71.2,29.13,SW,232,4.6,4.6,79,0.01,CLR,,0.01,WeatherDisplay:10.37,2013-07-24 02:38:00,
2013-07-23 22:44:00,78.1,71.1,29.13,SW,232,3.5,3.5,79,0.01,CLR,,0.01,WeatherDisplay:10.37,2013-07-24 02:44:00,
2013-07-23 22:49:00,77.9,71.2,29.13,SW,232,2.3,2.3,80,0.01,CLR,,0.01,WeatherDisplay:10.37,2013-07-24 02:49:00,
2013-07-23 22:54:00,77.9,70.9,29.14,SW,232,0.0,0.0,79,0.01,CLR,,0.01,WeatherDisplay:10.37,2013-07-24 02:54:00,
2013-07-23 23:00:00,78.1,70.7,29.14,SW,232,0.0,0.0,78,0.01,CLR,,0.01,WeatherDisplay:10.37,2013-07-24 03:00:00,
2013-07-23 23:05:00,78.1,70.7,29.14,SW,232,0.0,0.8,78,0.01,CLR,,0.01,WeatherDisplay:10.37,2013-07-24 03:05:00,
2013-07-23 23:11:00,78.1,70.7,29.14,SW,232,2.3,2.3,78,0.01,CLR,,0.01,WeatherDisplay:10.37,2013-07-24 03:11:00,
2013-07-23 23:17:00,78.1,70.7,29.14,SW,232,2.3,2.3,78,0.00,CLR,,0.01,WeatherDisplay:10.37,2013-07-24 03:17:00,
2013-07-23 23:22:00,78.1,70.7,29.13,SW,232,0.0,0.0,78,0.00,CLR,,0.01,WeatherDisplay:10.37,2013-07-24 03:22:00,
2013-07-23 23:27:00,78.1,70.7,29.13,SW,232,0.0,0.0,78,0.00,CLR,,0.01,WeatherDisplay:10.37,2013-07-24 03:27:00,
2013-07-23 23:32:00,77.9,70.5,29.13,SW,232,3.5,3.5,78,0.00,CLR,,0.01,WeatherDisplay:10.37,2013-07-24 03:32:00,
2013-07-23 23:38:00,77.7,70.7,29.13,SW,232,0.0,0.0,79,0.00,CLR,,0.01,WeatherDisplay:10.37,2013-07-24 03:38:00,
2013-07-23 23:43:00,77.6,70.6,29.13,SW,232,0.0,0.0,79,0.00,CLR,,0.01,WeatherDisplay:10.37,2013-07-24 03:43:00,
2013-07-23 23:48:00,77.4,70.4,29.13,SW,232,0.0,0.0,79,0.00,CLR,,0.01,WeatherDisplay:10.37,2013-07-24 03:48:00,
2013-07-23 23:53:00,77.4,70.4,29.14,SW,232,0.0,0.0,79,0.00,CLR,,0.01,WeatherDisplay:10.37,2013-07-24 03:53:00,
2013-07-23 23:59:00,77.2,70.2,29.14,SW,232,1.1,1.1,79,0.00,CLR,,0.01,WeatherDisplay:10.37,2013-07-24 03:59:00,